Year,Month,Day,Hour,Minute,Value (Times are PST for windgust in km/hr)
2007,05,07,00,00,6.40
2007,05,07,00,01,6.40
2007,05,07,00,02,6.40
2007,05,07,00,03,6.40
2007,05,07,00,04,4.80
2007,05,07,00,05,4.80
2007,05,07,00,06,4.80
2007,05,07,00,07,0.00
2007,05,07,00,08,6.40
2007,05,07,00,09,4.80
2007,05,07,00,10,0.00
2007,05,07,00,11,0.00
2007,05,07,00,12,4.80
2007,05,07,00,13,4.80
2007,05,07,00,14,3.20
2007,05,07,00,15,6.40
2007,05,07,00,16,6.40
2007,05,07,00,17,0.00
2007,05,07,00,18,1.60
2007,05,07,00,19,0.00
2007,05,07,00,20,0.00
2007,05,07,00,21,0.00
2007,05,07,00,22,0.00
2007,05,07,00,23,0.00
2007,05,07,00,24,0.00
2007,05,07,00,25,0.00
2007,05,07,00,26,0.00
2007,05,07,00,27,0.00
2007,05,07,00,28,0.00
2007,05,07,00,29,0.00
2007,05,07,00,30,0.00
2007,05,07,00,31,0.00
2007,05,07,00,32,0.00
2007,05,07,00,33,0.00
2007,05,07,00,34,0.00
2007,05,07,00,35,0.00
2007,05,07,00,36,4.80
2007,05,07,00,37,1.60
2007,05,07,00,38,6.40
2007,05,07,00,39,4.80
2007,05,07,00,40,3.20
2007,05,07,00,41,1.60
2007,05,07,00,42,1.60
2007,05,07,00,43,1.60
2007,05,07,00,44,3.20
2007,05,07,00,45,1.60
2007,05,07,00,46,0.00
2007,05,07,00,47,0.00
2007,05,07,00,48,0.00
2007,05,07,00,49,0.00
2007,05,07,00,50,0.00
2007,05,07,00,51,6.40
2007,05,07,00,52,3.20
2007,05,07,00,53,3.20
2007,05,07,00,54,1.60
2007,05,07,00,55,1.60
2007,05,07,00,56,3.20
2007,05,07,00,57,4.80
2007,05,07,00,58,4.80
2007,05,07,00,59,6.40
2007,05,07,01,00,6.40
2007,05,07,01,01,3.20
2007,05,07,01,02,6.40
2007,05,07,01,03,4.80
2007,05,07,01,04,1.60
2007,05,07,01,05,0.00
2007,05,07,01,06,0.00
2007,05,07,01,07,0.00
2007,05,07,01,08,0.00
2007,05,07,01,09,0.00
2007,05,07,01,10,0.00
2007,05,07,01,11,0.00
2007,05,07,01,12,1.60
2007,05,07,01,13,0.00
2007,05,07,01,14,0.00
2007,05,07,01,15,0.00
2007,05,07,01,16,4.80
2007,05,07,01,17,3.20
2007,05,07,01,18,0.00
2007,05,07,01,19,0.00
2007,05,07,01,20,0.00
2007,05,07,01,21,0.00
2007,05,07,01,22,1.60
2007,05,07,01,23,0.00
2007,05,07,01,24,0.00
2007,05,07,01,25,0.00
2007,05,07,01,26,0.00
2007,05,07,01,27,0.00
2007,05,07,01,28,0.00
2007,05,07,01,29,1.60
2007,05,07,01,30,0.00
2007,05,07,01,31,0.00
2007,05,07,01,32,0.00
2007,05,07,01,33,1.60
2007,05,07,01,34,0.00
2007,05,07,01,35,0.00
2007,05,07,01,36,0.00
2007,05,07,01,37,0.00
2007,05,07,01,38,0.00
2007,05,07,01,39,4.80
2007,05,07,01,40,6.40
2007,05,07,01,41,9.60
2007,05,07,01,42,8.10
2007,05,07,01,43,8.10
2007,05,07,01,44,6.40
2007,05,07,01,45,8.10
2007,05,07,01,46,8.10
2007,05,07,01,47,6.40
2007,05,07,01,48,1.60
2007,05,07,01,49,8.10
2007,05,07,01,50,8.10
2007,05,07,01,51,4.80
2007,05,07,01,52,1.60
2007,05,07,01,53,6.40
2007,05,07,01,54,8.10
2007,05,07,01,55,6.40
2007,05,07,01,56,0.00
2007,05,07,01,57,1.60
2007,05,07,01,58,0.00
2007,05,07,01,59,0.00
2007,05,07,02,00,0.00
2007,05,07,02,01,0.00
2007,05,07,02,02,6.40
2007,05,07,02,03,4.80
2007,05,07,02,04,6.40
2007,05,07,02,05,4.80
2007,05,07,02,06,6.40
2007,05,07,02,07,4.80
2007,05,07,02,08,6.40
2007,05,07,02,09,6.40
2007,05,07,02,10,4.80
2007,05,07,02,11,6.40
2007,05,07,02,12,6.40
2007,05,07,02,13,6.40
2007,05,07,02,14,3.20
2007,05,07,02,15,0.00
2007,05,07,02,16,4.80
2007,05,07,02,17,4.80
2007,05,07,02,18,4.80
2007,05,07,02,19,4.80
2007,05,07,02,20,6.40
2007,05,07,02,21,8.10
2007,05,07,02,22,8.10
2007,05,07,02,23,8.10
2007,05,07,02,24,8.10
2007,05,07,02,25,8.10
2007,05,07,02,26,9.60
2007,05,07,02,27,8.10
2007,05,07,02,28,6.40
2007,05,07,02,29,3.20
2007,05,07,02,30,0.00
2007,05,07,02,31,1.60
2007,05,07,02,32,1.60
2007,05,07,02,33,0.00
2007,05,07,02,34,1.60
2007,05,07,02,35,1.60
2007,05,07,02,36,0.00
2007,05,07,02,37,1.60
2007,05,07,02,38,0.00
2007,05,07,02,39,4.80
2007,05,07,02,40,6.40
2007,05,07,02,41,6.40
2007,05,07,02,42,6.40
2007,05,07,02,43,6.40
2007,05,07,02,44,4.80
2007,05,07,02,45,3.20
2007,05,07,02,46,0.00
2007,05,07,02,47,0.00
2007,05,07,02,48,0.00
2007,05,07,02,49,1.60
2007,05,07,02,50,0.00
2007,05,07,02,51,0.00
2007,05,07,02,52,0.00
2007,05,07,02,53,0.00
2007,05,07,02,54,0.00
2007,05,07,02,55,0.00
2007,05,07,02,56,0.00
2007,05,07,02,57,0.00
2007,05,07,02,58,0.00
2007,05,07,02,59,0.00
2007,05,07,03,00,0.00
2007,05,07,03,01,0.00
2007,05,07,03,02,0.00
2007,05,07,03,03,0.00
2007,05,07,03,04,0.00
2007,05,07,03,05,0.00
2007,05,07,03,06,0.00
2007,05,07,03,07,0.00
2007,05,07,03,08,0.00
2007,05,07,03,09,0.00
2007,05,07,03,10,0.00
2007,05,07,03,11,0.00
2007,05,07,03,12,0.00
2007,05,07,03,13,0.00
2007,05,07,03,14,0.00
2007,05,07,03,15,0.00
2007,05,07,03,16,0.00
2007,05,07,03,17,0.00
2007,05,07,03,18,0.00
2007,05,07,03,19,0.00
2007,05,07,03,20,0.00
2007,05,07,03,21,0.00
2007,05,07,03,22,0.00
2007,05,07,03,23,0.00
2007,05,07,03,24,0.00
2007,05,07,03,25,0.00
2007,05,07,03,26,0.00
2007,05,07,03,27,0.00
2007,05,07,03,28,0.00
2007,05,07,03,29,0.00
2007,05,07,03,30,0.00
2007,05,07,03,31,0.00
2007,05,07,03,32,0.00
2007,05,07,03,33,0.00
2007,05,07,03,34,0.00
2007,05,07,03,35,0.00
2007,05,07,03,36,0.00
2007,05,07,03,37,0.00
2007,05,07,03,38,0.00
2007,05,07,03,39,0.00
2007,05,07,03,40,0.00
2007,05,07,03,41,0.00
2007,05,07,03,42,0.00
2007,05,07,03,43,0.00
2007,05,07,03,44,0.00
2007,05,07,03,45,0.00
2007,05,07,03,46,0.00
2007,05,07,03,47,0.00
2007,05,07,03,48,0.00
2007,05,07,03,49,0.00
2007,05,07,03,50,0.00
2007,05,07,03,51,0.00
2007,05,07,03,52,0.00
2007,05,07,03,53,0.00
2007,05,07,03,54,0.00
2007,05,07,03,55,0.00
2007,05,07,03,56,0.00
2007,05,07,03,57,0.00
2007,05,07,03,58,0.00
2007,05,07,03,59,0.00
2007,05,07,04,00,0.00
2007,05,07,04,01,0.00
2007,05,07,04,02,0.00
2007,05,07,04,03,0.00
2007,05,07,04,04,0.00
2007,05,07,04,05,0.00
2007,05,07,04,06,0.00
2007,05,07,04,07,0.00
2007,05,07,04,08,0.00
2007,05,07,04,09,0.00
2007,05,07,04,10,0.00
2007,05,07,04,11,0.00
2007,05,07,04,12,0.00
2007,05,07,04,13,0.00
2007,05,07,04,14,0.00
2007,05,07,04,15,0.00
2007,05,07,04,16,0.00
2007,05,07,04,17,0.00
2007,05,07,04,18,0.00
2007,05,07,04,19,0.00
2007,05,07,04,20,0.00
2007,05,07,04,21,0.00
2007,05,07,04,22,0.00
2007,05,07,04,23,0.00
2007,05,07,04,24,0.00
2007,05,07,04,25,0.00
2007,05,07,04,26,0.00
2007,05,07,04,27,0.00
2007,05,07,04,28,1.60
2007,05,07,04,29,0.00
2007,05,07,04,30,0.00
2007,05,07,04,31,0.00
2007,05,07,04,32,1.60
2007,05,07,04,33,3.20
2007,05,07,04,34,3.20
2007,05,07,04,35,0.00
2007,05,07,04,36,0.00
2007,05,07,04,37,0.00
2007,05,07,04,38,0.00
2007,05,07,04,39,0.00
2007,05,07,04,40,0.00
2007,05,07,04,41,0.00
2007,05,07,04,42,0.00
2007,05,07,04,43,0.00
2007,05,07,04,44,0.00
2007,05,07,04,45,0.00
2007,05,07,04,46,0.00
2007,05,07,04,47,0.00
2007,05,07,04,48,0.00
2007,05,07,04,49,0.00
2007,05,07,04,50,0.00
2007,05,07,04,51,0.00
2007,05,07,04,52,0.00
2007,05,07,04,53,0.00
2007,05,07,04,54,0.00
2007,05,07,04,55,0.00
2007,05,07,04,56,0.00
2007,05,07,04,57,0.00
2007,05,07,04,58,0.00
2007,05,07,04,59,0.00
2007,05,07,05,00,0.00
2007,05,07,05,01,0.00
2007,05,07,05,02,0.00
2007,05,07,05,03,0.00
2007,05,07,05,04,0.00
2007,05,07,05,05,0.00
2007,05,07,05,06,0.00
2007,05,07,05,07,0.00
2007,05,07,05,08,0.00
2007,05,07,05,09,0.00
2007,05,07,05,10,0.00
2007,05,07,05,11,0.00
2007,05,07,05,12,0.00
2007,05,07,05,13,0.00
2007,05,07,05,14,0.00
2007,05,07,05,15,0.00
2007,05,07,05,16,0.00
2007,05,07,05,17,0.00
2007,05,07,05,18,0.00
2007,05,07,05,19,0.00
2007,05,07,05,20,0.00
2007,05,07,05,21,0.00
2007,05,07,05,22,0.00
2007,05,07,05,23,0.00
2007,05,07,05,24,0.00
2007,05,07,05,25,0.00
2007,05,07,05,26,0.00
2007,05,07,05,27,0.00
2007,05,07,05,28,0.00
2007,05,07,05,29,0.00
2007,05,07,05,30,0.00
2007,05,07,05,31,0.00
2007,05,07,05,32,1.60
2007,05,07,05,33,0.00
2007,05,07,05,34,0.00
2007,05,07,05,35,0.00
2007,05,07,05,36,0.00
2007,05,07,05,37,0.00
2007,05,07,05,38,0.00
2007,05,07,05,39,0.00
2007,05,07,05,40,0.00
2007,05,07,05,41,0.00
2007,05,07,05,42,0.00
2007,05,07,05,43,0.00
2007,05,07,05,44,0.00
2007,05,07,05,45,0.00
2007,05,07,05,46,0.00
2007,05,07,05,47,0.00
2007,05,07,05,48,0.00
2007,05,07,05,49,0.00
2007,05,07,05,50,0.00
2007,05,07,05,51,0.00
2007,05,07,05,52,0.00
2007,05,07,05,53,0.00
2007,05,07,05,54,0.00
2007,05,07,05,55,0.00
2007,05,07,05,56,0.00
2007,05,07,05,57,0.00
2007,05,07,05,58,0.00
2007,05,07,05,59,0.00
2007,05,07,06,00,0.00
2007,05,07,06,01,0.00
2007,05,07,06,02,0.00
2007,05,07,06,03,0.00
2007,05,07,06,04,0.00
2007,05,07,06,05,0.00
2007,05,07,06,06,0.00
2007,05,07,06,07,0.00
2007,05,07,06,08,0.00
2007,05,07,06,09,0.00
2007,05,07,06,10,0.00
2007,05,07,06,11,0.00
2007,05,07,06,12,0.00
2007,05,07,06,13,0.00
2007,05,07,06,14,0.00
2007,05,07,06,15,0.00
2007,05,07,06,16,0.00
2007,05,07,06,17,0.00
2007,05,07,06,18,0.00
2007,05,07,06,19,0.00
2007,05,07,06,20,0.00
2007,05,07,06,21,0.00
2007,05,07,06,22,0.00
2007,05,07,06,23,0.00
2007,05,07,06,24,0.00
2007,05,07,06,25,0.00
2007,05,07,06,26,0.00
2007,05,07,06,27,0.00
2007,05,07,06,28,0.00
2007,05,07,06,29,0.00
2007,05,07,06,30,0.00
2007,05,07,06,31,0.00
2007,05,07,06,32,0.00
2007,05,07,06,33,0.00
2007,05,07,06,34,0.00
2007,05,07,06,35,1.60
2007,05,07,06,36,0.00
2007,05,07,06,37,0.00
2007,05,07,06,38,0.00
2007,05,07,06,39,0.00
2007,05,07,06,40,0.00
2007,05,07,06,41,0.00
2007,05,07,06,42,0.00
2007,05,07,06,43,0.00
2007,05,07,06,44,0.00
2007,05,07,06,45,0.00
2007,05,07,06,46,0.00
2007,05,07,06,47,0.00
2007,05,07,06,48,0.00
2007,05,07,06,49,0.00
2007,05,07,06,50,0.00
2007,05,07,06,51,0.00
2007,05,07,06,52,0.00
2007,05,07,06,53,0.00
2007,05,07,06,54,0.00
2007,05,07,06,55,0.00
2007,05,07,06,56,0.00
2007,05,07,06,57,0.00
2007,05,07,06,58,0.00
2007,05,07,06,59,0.00
2007,05,07,07,00,0.00
2007,05,07,07,01,0.00
2007,05,07,07,02,0.00
2007,05,07,07,03,0.00
2007,05,07,07,04,0.00
2007,05,07,07,05,0.00
2007,05,07,07,06,0.00
2007,05,07,07,07,0.00
2007,05,07,07,08,0.00
2007,05,07,07,09,0.00
2007,05,07,07,10,0.00
2007,05,07,07,11,1.60
2007,05,07,07,12,1.60
2007,05,07,07,13,0.00
2007,05,07,07,14,0.00
2007,05,07,07,15,0.00
2007,05,07,07,16,0.00
2007,05,07,07,17,0.00
2007,05,07,07,18,0.00
2007,05,07,07,19,0.00
2007,05,07,07,20,0.00
2007,05,07,07,21,1.60
2007,05,07,07,22,6.40
2007,05,07,07,23,3.20
2007,05,07,07,24,1.60
2007,05,07,07,25,4.80
2007,05,07,07,26,3.20
2007,05,07,07,27,6.40
2007,05,07,07,28,6.40
2007,05,07,07,29,6.40
2007,05,07,07,30,6.40
2007,05,07,07,31,0.00
2007,05,07,07,32,1.60
2007,05,07,07,33,6.40
2007,05,07,07,34,6.40
2007,05,07,07,35,3.20
2007,05,07,07,36,6.40
2007,05,07,07,37,6.40
2007,05,07,07,38,4.80
2007,05,07,07,39,8.10
2007,05,07,07,40,6.40
2007,05,07,07,41,4.80
2007,05,07,07,42,4.80
2007,05,07,07,43,3.20
2007,05,07,07,44,4.80
2007,05,07,07,45,4.80
2007,05,07,07,46,4.80
2007,05,07,07,47,9.60
2007,05,07,07,48,8.10
2007,05,07,07,49,6.40
2007,05,07,07,50,4.80
2007,05,07,07,51,0.00
2007,05,07,07,52,4.80
2007,05,07,07,53,1.60
2007,05,07,07,54,4.80
2007,05,07,07,55,4.80
2007,05,07,07,56,6.40
2007,05,07,07,57,8.10
2007,05,07,07,58,6.40
2007,05,07,07,59,8.10
2007,05,07,08,00,9.60
2007,05,07,08,01,9.60
2007,05,07,08,02,9.60
2007,05,07,08,03,8.10
2007,05,07,08,04,4.80
2007,05,07,08,05,1.60
2007,05,07,08,06,6.40
2007,05,07,08,07,8.10
2007,05,07,08,08,11.30
2007,05,07,08,09,9.60
2007,05,07,08,10,9.60
2007,05,07,08,11,9.60
2007,05,07,08,12,11.30
2007,05,07,08,13,8.10
2007,05,07,08,14,9.60
2007,05,07,08,15,8.10
2007,05,07,08,16,12.90
2007,05,07,08,17,8.10
2007,05,07,08,18,9.60
2007,05,07,08,19,11.30
2007,05,07,08,20,11.30
2007,05,07,08,21,6.40
2007,05,07,08,22,9.60
2007,05,07,08,23,11.30
2007,05,07,08,24,11.30
2007,05,07,08,25,6.40
2007,05,07,08,26,6.40
2007,05,07,08,27,11.30
2007,05,07,08,28,8.10
2007,05,07,08,29,11.30
2007,05,07,08,30,11.30
2007,05,07,08,31,9.60
2007,05,07,08,32,9.60
2007,05,07,08,33,8.10
2007,05,07,08,34,9.60
2007,05,07,08,35,14.50
2007,05,07,08,36,11.30
2007,05,07,08,37,6.40
2007,05,07,08,38,16.10
2007,05,07,08,39,9.60
2007,05,07,08,40,9.60
2007,05,07,08,41,9.60
2007,05,07,08,42,8.10
2007,05,07,08,43,11.30
2007,05,07,08,44,16.10
2007,05,07,08,45,17.70
2007,05,07,08,46,14.50
2007,05,07,08,47,6.40
2007,05,07,08,48,17.70
2007,05,07,08,49,17.70
2007,05,07,08,50,20.90
2007,05,07,08,51,17.70
2007,05,07,08,52,20.90
2007,05,07,08,53,9.60
2007,05,07,08,54,19.30
2007,05,07,08,55,14.50
2007,05,07,08,56,16.10
2007,05,07,08,57,19.30
2007,05,07,08,58,17.70
2007,05,07,08,59,16.10
2007,05,07,09,00,17.70
2007,05,07,09,01,14.50
2007,05,07,09,02,14.50
2007,05,07,09,03,11.30
2007,05,07,09,04,17.70
2007,05,07,09,05,9.60
2007,05,07,09,06,8.10
2007,05,07,09,07,6.40
2007,05,07,09,08,8.10
2007,05,07,09,09,11.30
2007,05,07,09,10,12.90
2007,05,07,09,11,8.10
2007,05,07,09,12,8.10
2007,05,07,09,13,8.10
2007,05,07,09,14,6.40
2007,05,07,09,15,6.40
2007,05,07,09,16,9.60
2007,05,07,09,17,9.60
2007,05,07,09,18,14.50
2007,05,07,09,19,11.30
2007,05,07,09,20,8.10
2007,05,07,09,21,8.10
2007,05,07,09,22,9.60
2007,05,07,09,23,11.30
2007,05,07,09,24,8.10
2007,05,07,09,25,8.10
2007,05,07,09,26,8.10
2007,05,07,09,27,8.10
2007,05,07,09,28,8.10
2007,05,07,09,29,8.10
2007,05,07,09,30,6.40
2007,05,07,09,31,8.10
2007,05,07,09,32,9.60
2007,05,07,09,33,8.10
2007,05,07,09,34,8.10
2007,05,07,09,35,11.30
2007,05,07,09,36,6.40
2007,05,07,09,37,8.10
2007,05,07,09,38,8.10
2007,05,07,09,39,8.10
2007,05,07,09,40,8.10
2007,05,07,09,41,1.60
2007,05,07,09,42,4.80
2007,05,07,09,43,6.40
2007,05,07,09,44,6.40
2007,05,07,09,45,8.10
2007,05,07,09,46,4.80
2007,05,07,09,47,3.20
2007,05,07,09,48,9.60
2007,05,07,09,49,6.40
2007,05,07,09,50,6.40
2007,05,07,09,51,8.10
2007,05,07,09,52,4.80
2007,05,07,09,53,4.80
2007,05,07,09,54,6.40
2007,05,07,09,55,6.40
2007,05,07,09,56,9.60
2007,05,07,09,57,8.10
2007,05,07,09,58,4.80
2007,05,07,09,59,3.20
2007,05,07,10,00,1.60
2007,05,07,10,01,1.60
2007,05,07,10,02,4.80
2007,05,07,10,03,1.60
2007,05,07,10,04,6.40
2007,05,07,10,05,6.40
2007,05,07,10,06,9.60
2007,05,07,10,07,1.60
2007,05,07,10,08,8.10
2007,05,07,10,09,14.50
2007,05,07,10,10,11.30
2007,05,07,10,11,8.10
2007,05,07,10,12,14.50
2007,05,07,10,13,9.60
2007,05,07,10,14,6.40
2007,05,07,10,15,9.60
2007,05,07,10,16,9.60
2007,05,07,10,17,8.10
2007,05,07,10,18,9.60
2007,05,07,10,19,11.30
2007,05,07,10,20,11.30
2007,05,07,10,21,9.60
2007,05,07,10,22,9.60
2007,05,07,10,23,11.30
2007,05,07,10,24,14.50
2007,05,07,10,25,11.30
2007,05,07,10,26,14.50
2007,05,07,10,27,11.30
2007,05,07,10,28,14.50
2007,05,07,10,29,17.70
2007,05,07,10,30,12.90
2007,05,07,10,31,9.60
2007,05,07,10,32,8.10
2007,05,07,10,33,6.40
2007,05,07,10,34,9.60
2007,05,07,10,35,9.60
2007,05,07,10,36,9.60
2007,05,07,10,37,4.80
2007,05,07,10,38,9.60
2007,05,07,10,39,9.60
2007,05,07,10,40,9.60
2007,05,07,10,41,8.10
2007,05,07,10,42,8.10
2007,05,07,10,43,9.60
2007,05,07,10,44,14.50
2007,05,07,10,45,9.60
2007,05,07,10,46,11.30
2007,05,07,10,47,11.30
2007,05,07,10,48,8.10
2007,05,07,10,49,11.30
2007,05,07,10,50,8.10
2007,05,07,10,51,6.40
2007,05,07,10,52,9.60
2007,05,07,10,53,9.60
2007,05,07,10,54,9.60
2007,05,07,10,55,9.60
2007,05,07,10,56,1.60
2007,05,07,10,57,8.10
2007,05,07,10,58,11.30
2007,05,07,10,59,11.30
2007,05,07,11,00,14.50
2007,05,07,11,01,11.30
2007,05,07,11,02,14.50
2007,05,07,11,03,12.90
2007,05,07,11,04,8.10
2007,05,07,11,05,8.10
2007,05,07,11,06,8.10
2007,05,07,11,07,8.10
2007,05,07,11,08,9.60
2007,05,07,11,09,14.50
2007,05,07,11,10,9.60
2007,05,07,11,11,9.60
2007,05,07,11,12,11.30
2007,05,07,11,13,9.60
2007,05,07,11,14,16.10
2007,05,07,11,15,11.30
2007,05,07,11,16,12.90
2007,05,07,11,17,9.60
2007,05,07,11,18,11.30
2007,05,07,11,19,9.60
2007,05,07,11,20,8.10
2007,05,07,11,21,9.60
2007,05,07,11,22,9.60
2007,05,07,11,23,11.30
2007,05,07,11,24,9.60
2007,05,07,11,25,8.10
2007,05,07,11,26,9.60
2007,05,07,11,27,16.10
2007,05,07,11,28,16.10
2007,05,07,11,29,12.90
2007,05,07,11,30,16.10
2007,05,07,11,31,9.60
2007,05,07,11,32,14.50
2007,05,07,11,33,16.10
2007,05,07,11,34,11.30
2007,05,07,11,35,9.60
2007,05,07,11,36,8.10
2007,05,07,11,37,6.40
2007,05,07,11,38,11.30
2007,05,07,11,39,8.10
2007,05,07,11,40,11.30
2007,05,07,11,41,6.40
2007,05,07,11,42,4.80
2007,05,07,11,43,9.60
2007,05,07,11,44,9.60
2007,05,07,11,45,14.50
2007,05,07,11,46,12.90
2007,05,07,11,47,14.50
2007,05,07,11,48,11.30
2007,05,07,11,49,9.60
2007,05,07,11,50,8.10
2007,05,07,11,51,8.10
2007,05,07,11,52,6.40
2007,05,07,11,53,11.30
2007,05,07,11,54,9.60
2007,05,07,11,55,4.80
2007,05,07,11,56,16.10
2007,05,07,11,57,11.30
2007,05,07,11,58,9.60
2007,05,07,11,59,9.60
2007,05,07,12,00,9.60
2007,05,07,12,01,8.10
2007,05,07,12,02,9.60
2007,05,07,12,03,9.60
2007,05,07,12,04,6.40
2007,05,07,12,05,11.30
2007,05,07,12,06,11.30
2007,05,07,12,07,9.60
2007,05,07,12,08,11.30
2007,05,07,12,09,11.30
2007,05,07,12,10,9.60
2007,05,07,12,11,9.60
2007,05,07,12,12,8.10
2007,05,07,12,13,9.60
2007,05,07,12,14,6.40
2007,05,07,12,15,6.40
2007,05,07,12,16,9.60
2007,05,07,12,17,9.60
2007,05,07,12,18,9.60
2007,05,07,12,19,11.30
2007,05,07,12,20,12.90
2007,05,07,12,21,14.50
2007,05,07,12,22,12.90
2007,05,07,12,23,14.50
2007,05,07,12,24,12.90
2007,05,07,12,25,11.30
2007,05,07,12,26,16.10
2007,05,07,12,27,6.40
2007,05,07,12,28,9.60
2007,05,07,12,29,9.60
2007,05,07,12,30,11.30
2007,05,07,12,31,11.30
2007,05,07,12,32,6.40
2007,05,07,12,33,9.60
2007,05,07,12,34,9.60
2007,05,07,12,35,6.40
2007,05,07,12,36,8.10
2007,05,07,12,37,6.40
2007,05,07,12,38,6.40
2007,05,07,12,39,9.60
2007,05,07,12,40,8.10
2007,05,07,12,41,9.60
2007,05,07,12,42,4.80
2007,05,07,12,43,4.80
2007,05,07,12,44,6.40
2007,05,07,12,45,11.30
2007,05,07,12,46,16.10
2007,05,07,12,47,14.50
2007,05,07,12,48,11.30
2007,05,07,12,49,9.60
2007,05,07,12,50,6.40
2007,05,07,12,51,16.10
2007,05,07,12,52,17.70
2007,05,07,12,53,11.30
2007,05,07,12,54,11.30
2007,05,07,12,55,12.90
2007,05,07,12,56,11.30
2007,05,07,12,57,9.60
2007,05,07,12,58,11.30
2007,05,07,12,59,9.60
2007,05,07,13,00,8.10
2007,05,07,13,01,9.60
2007,05,07,13,02,6.40
2007,05,07,13,03,16.10
2007,05,07,13,04,16.10
2007,05,07,13,05,14.50
2007,05,07,13,06,11.30
2007,05,07,13,07,16.10
2007,05,07,13,08,6.40
2007,05,07,13,09,11.30
2007,05,07,13,10,19.30
2007,05,07,13,11,19.30
2007,05,07,13,12,9.60
2007,05,07,13,13,14.50
2007,05,07,13,14,16.10
2007,05,07,13,15,17.70
2007,05,07,13,16,9.60
2007,05,07,13,17,14.50
2007,05,07,13,18,9.60
2007,05,07,13,19,16.10
2007,05,07,13,20,6.40
2007,05,07,13,21,17.70
2007,05,07,13,22,14.50
2007,05,07,13,23,9.60
2007,05,07,13,24,14.50
2007,05,07,13,25,19.30
2007,05,07,13,26,22.50
2007,05,07,13,27,20.90
2007,05,07,13,28,17.70
2007,05,07,13,29,20.90
2007,05,07,13,30,17.70
2007,05,07,13,31,20.90
2007,05,07,13,32,19.30
2007,05,07,13,33,17.70
2007,05,07,13,34,19.30
2007,05,07,13,35,19.30
2007,05,07,13,36,19.30
2007,05,07,13,37,20.90
2007,05,07,13,38,17.70
2007,05,07,13,39,16.10
2007,05,07,13,40,24.20
2007,05,07,13,41,24.20
2007,05,07,13,42,14.50
2007,05,07,13,43,16.10
2007,05,07,13,44,14.50
2007,05,07,13,45,16.10
2007,05,07,13,46,14.50
2007,05,07,13,47,16.10
2007,05,07,13,48,19.30
2007,05,07,13,49,14.50
2007,05,07,13,50,11.30
2007,05,07,13,51,11.30
2007,05,07,13,52,12.90
2007,05,07,13,53,16.10
2007,05,07,13,54,9.60
2007,05,07,13,55,16.10
2007,05,07,13,56,16.10
2007,05,07,13,57,16.10
2007,05,07,13,58,16.10
2007,05,07,13,59,9.60
2007,05,07,14,00,8.10
2007,05,07,14,01,11.30
2007,05,07,14,02,12.90
2007,05,07,14,03,16.10
2007,05,07,14,04,14.50
2007,05,07,14,05,8.10
2007,05,07,14,06,8.10
2007,05,07,14,07,11.30
2007,05,07,14,08,9.60
2007,05,07,14,09,11.30
2007,05,07,14,10,6.40
2007,05,07,14,11,12.90
2007,05,07,14,12,11.30
2007,05,07,14,13,11.30
2007,05,07,14,14,14.50
2007,05,07,14,15,19.30
2007,05,07,14,16,14.50
2007,05,07,14,17,14.50
2007,05,07,14,18,11.30
2007,05,07,14,19,9.60
2007,05,07,14,20,11.30
2007,05,07,14,21,11.30
2007,05,07,14,22,8.10
2007,05,07,14,23,8.10
2007,05,07,14,24,6.40
2007,05,07,14,25,11.30
2007,05,07,14,26,6.40
2007,05,07,14,27,9.60
2007,05,07,14,28,16.10
2007,05,07,14,29,9.60
2007,05,07,14,30,3.20
2007,05,07,14,31,8.10
2007,05,07,14,32,19.30
2007,05,07,14,33,11.30
2007,05,07,14,34,9.60
2007,05,07,14,35,8.10
2007,05,07,14,36,14.50
2007,05,07,14,37,12.90
2007,05,07,14,38,8.10
2007,05,07,14,39,8.10
2007,05,07,14,40,11.30
2007,05,07,14,41,8.10
2007,05,07,14,42,8.10
2007,05,07,14,43,8.10
2007,05,07,14,44,8.10
2007,05,07,14,45,8.10
2007,05,07,14,46,9.60
2007,05,07,14,47,6.40
2007,05,07,14,48,12.90
2007,05,07,14,49,9.60
2007,05,07,14,50,9.60
2007,05,07,14,51,9.60
2007,05,07,14,52,9.60
2007,05,07,14,53,6.40
2007,05,07,14,54,3.20
2007,05,07,14,55,6.40
2007,05,07,14,56,6.40
2007,05,07,14,57,6.40
2007,05,07,14,58,8.10
2007,05,07,14,59,11.30
2007,05,07,15,00,9.60
2007,05,07,15,01,6.40
2007,05,07,15,02,6.40
2007,05,07,15,03,9.60
2007,05,07,15,04,6.40
2007,05,07,15,05,9.60
2007,05,07,15,06,8.10
2007,05,07,15,07,8.10
2007,05,07,15,08,11.30
2007,05,07,15,09,11.30
2007,05,07,15,10,9.60
2007,05,07,15,11,11.30
2007,05,07,15,12,11.30
2007,05,07,15,13,4.80
2007,05,07,15,14,6.40
2007,05,07,15,15,8.10
2007,05,07,15,16,8.10
2007,05,07,15,17,8.10
2007,05,07,15,18,9.60
2007,05,07,15,19,8.10
2007,05,07,15,20,8.10
2007,05,07,15,21,6.40
2007,05,07,15,22,4.80
2007,05,07,15,23,8.10
2007,05,07,15,24,9.60
2007,05,07,15,25,8.10
2007,05,07,15,26,3.20
2007,05,07,15,27,9.60
2007,05,07,15,28,9.60
2007,05,07,15,29,11.30
2007,05,07,15,30,11.30
2007,05,07,15,31,9.60
2007,05,07,15,32,14.50
2007,05,07,15,33,14.50
2007,05,07,15,34,11.30
2007,05,07,15,35,11.30
2007,05,07,15,36,14.50
2007,05,07,15,37,8.10
2007,05,07,15,38,6.40
2007,05,07,15,39,11.30
2007,05,07,15,40,8.10
2007,05,07,15,41,8.10
2007,05,07,15,42,9.60
2007,05,07,15,43,3.20
2007,05,07,15,44,3.20
2007,05,07,15,45,11.30
2007,05,07,15,46,8.10
2007,05,07,15,47,6.40
2007,05,07,15,48,4.80
2007,05,07,15,49,6.40
2007,05,07,15,50,6.40
2007,05,07,15,51,6.40
2007,05,07,15,52,4.80
2007,05,07,15,53,3.20
2007,05,07,15,54,6.40
2007,05,07,15,55,4.80
2007,05,07,15,56,1.60
2007,05,07,15,57,4.80
2007,05,07,15,58,11.30
2007,05,07,15,59,3.20
2007,05,07,16,00,9.60
2007,05,07,16,01,11.30
2007,05,07,16,02,6.40
2007,05,07,16,03,1.60
2007,05,07,16,04,6.40
2007,05,07,16,05,6.40
2007,05,07,16,06,4.80
2007,05,07,16,07,8.10
2007,05,07,16,08,9.60
2007,05,07,16,09,11.30
2007,05,07,16,10,12.90
2007,05,07,16,11,12.90
2007,05,07,16,12,9.60
2007,05,07,16,13,9.60
2007,05,07,16,14,14.50
2007,05,07,16,15,16.10
2007,05,07,16,16,9.60
2007,05,07,16,17,16.10
2007,05,07,16,18,16.10
2007,05,07,16,19,16.10
2007,05,07,16,20,16.10
2007,05,07,16,21,16.10
2007,05,07,16,22,22.50
2007,05,07,16,23,19.30
2007,05,07,16,24,16.10
2007,05,07,16,25,17.70
2007,05,07,16,26,19.30
2007,05,07,16,27,16.10
2007,05,07,16,28,19.30
2007,05,07,16,29,11.30
2007,05,07,16,30,19.30
2007,05,07,16,31,20.90
2007,05,07,16,32,22.50
2007,05,07,16,33,20.90
2007,05,07,16,34,19.30
2007,05,07,16,35,12.90
2007,05,07,16,36,19.30
2007,05,07,16,37,12.90
2007,05,07,16,38,20.90
2007,05,07,16,39,27.40
2007,05,07,16,40,20.90
2007,05,07,16,41,6.40
2007,05,07,16,42,11.30
2007,05,07,16,43,17.70
2007,05,07,16,44,20.90
2007,05,07,16,45,24.20
2007,05,07,16,46,20.90
2007,05,07,16,47,24.20
2007,05,07,16,48,29.00
2007,05,07,16,49,20.90
2007,05,07,16,50,19.30
2007,05,07,16,51,24.20
2007,05,07,16,52,19.30
2007,05,07,16,53,16.10
2007,05,07,16,54,25.70
2007,05,07,16,55,20.90
2007,05,07,16,56,22.50
2007,05,07,16,57,25.70
2007,05,07,16,58,24.20
2007,05,07,16,59,16.10
2007,05,07,17,00,17.70
2007,05,07,17,01,19.30
2007,05,07,17,02,22.50
2007,05,07,17,03,19.30
2007,05,07,17,04,19.30
2007,05,07,17,05,19.30
2007,05,07,17,06,22.50
2007,05,07,17,07,22.50
2007,05,07,17,08,16.10
2007,05,07,17,09,12.90
2007,05,07,17,10,8.10
2007,05,07,17,11,19.30
2007,05,07,17,12,22.50
2007,05,07,17,13,11.30
2007,05,07,17,14,6.40
2007,05,07,17,15,17.70
2007,05,07,17,16,19.30
2007,05,07,17,17,11.30
2007,05,07,17,18,24.20
2007,05,07,17,19,17.70
2007,05,07,17,20,11.30
2007,05,07,17,21,14.50
2007,05,07,17,22,11.30
2007,05,07,17,23,19.30
2007,05,07,17,24,14.50
2007,05,07,17,25,9.60
2007,05,07,17,26,16.10
2007,05,07,17,27,14.50
2007,05,07,17,28,11.30
2007,05,07,17,29,17.70
2007,05,07,17,30,14.50
2007,05,07,17,31,16.10
2007,05,07,17,32,19.30
2007,05,07,17,33,19.30
2007,05,07,17,34,19.30
2007,05,07,17,35,17.70
2007,05,07,17,36,11.30
2007,05,07,17,37,20.90
2007,05,07,17,38,12.90
2007,05,07,17,39,11.30
2007,05,07,17,40,17.70
2007,05,07,17,41,14.50
2007,05,07,17,42,12.90
2007,05,07,17,43,17.70
2007,05,07,17,44,17.70
2007,05,07,17,45,16.10
2007,05,07,17,46,11.30
2007,05,07,17,47,17.70
2007,05,07,17,48,22.50
2007,05,07,17,49,20.90
2007,05,07,17,50,19.30
2007,05,07,17,51,20.90
2007,05,07,17,52,16.10
2007,05,07,17,53,19.30